Weather Roundup
Issued by NWS

Home | Current Version | Previous Version | Text Only | Print | Product List | Glossary On
Versions: 1 2 3 4 5 6 7 8 9 10 11 12 13 14 15 16 17 18 19 20 21 22 23 24 25 26 27 28 29 30 31 32 33 34 35 36 37 38 39 40 41 42 43 44 45 46 47 48 49 50
000
NZUS93 KARX 231910
HRRWXR

CURRENT HOURLY OBSERVATIONS ACROSS
MUCH OF THE UPPER MISSISSIPPI VALLEY
NATIONAL WEATHER SERVICE LA CROSSE WI
200 PM CDT SAT AUG 23 2014


...SOUTHEAST MINNESOTA...


CITY           SKY/WX    TMP DP  RH WIND       PRES   REMARKS
ROCHESTER      CLOUDY    76  68  76 CALM      29.97S
ROCHESTER/MAYO FAIR      74  69  84 CALM      29.96S
WINONA         CLOUDY    77  73  88 SE6       29.92F
AUSTIN         CLOUDY    79  70  73 SE9       29.94S
ALBERT LEA     CLOUDY    79  72  78 E9        29.94R
DODGE CENTER   CLOUDY    75  72  88 E7        29.96S
PRESTON        CLOUDY    74  72  93 CALM      29.95S
OWATONNA       PTSUNNY   79  70  73 E9        29.94S
FARIBAULT      CLOUDY    79  66  65 NE9       29.94F
$$

...ELSEWHERE IN MINNESOTA...


CITY           SKY/WX    TMP DP  RH WIND       PRES   REMARKS
MINNEAPOLIS    CLOUDY    73  69  87 NE9       29.96S
INTNL FALLS    CLOUDY    75  62  64 E12       30.06S
DULUTH         FOG       66  63  90 E12       30.05R VSB 1
RED WING       CLOUDY    73  70  88 E9        29.93F
REDWOOD FALLS  CLOUDY    78  69  73 E8        29.92S
MANKATO        PTSUNNY   77  68  73 NE9       29.92S
WORTHINGTON      N/A     82  21  10 S10G17    29.92S
FAIRMONT       PTSUNNY   70  64  83 SE8       29.91S
$$

...SOUTHWEST WISCONSIN...


CITY           SKY/WX    TMP DP  RH WIND       PRES   REMARKS
LA CROSSE      LGT RAIN  75  71  87 E8        29.92F
PRAIRIE DU CHI CLOUDY    74  72  93 E6        29.92F
BOSCOBEL       LGT RAIN  78  73  84 NE6       29.92F
LONE ROCK      LGT RAIN  80  74  81 E6        29.93F
PLATTEVILLE    CLOUDY    75  74  96 E6        29.93F
FORT MC COY    CLOUDY    74  71  89 SE5       29.97S
CAMP DOUGLAS   CLOUDY    77  77 100 E5        29.97F FOG
VIROQUA        FAIR      73  73 100 NE5       29.96F
WIS DELLS      CLOUDY    77  72  84 E8        29.98F HAZE
$$

...ELSEWHERE IN WISCONSIN...


CITY           SKY/WX    TMP DP  RH WIND       PRES   REMARKS
MILWAUKEE      CLOUDY    73  70  90 VRB3      30.04R FOG
MADISON        LGT RAIN  77  73  87 E10       29.98F FOG
GREEN BAY      LGT RAIN  75  73  93 SE5       30.03R
EAU CLAIRE     CLOUDY    79  73  82 E9        29.95F
BLACK RVR FLS  CLOUDY    75  75  99 E5        29.96S FOG
MEDFORD        CLOUDY    72  70  92 E6        30.02S FOG
WAUSAU         CLOUDY    73  69  87 E10       30.01S FOG
WIS RAPIDS     CLOUDY    73  71  93 E9        30.02R FOG
MARSHFIELD     CLOUDY    74  71  91 SE8       30.00F FOG
RICE LAKE      CLOUDY    76  68  77 E8        30.00F
$$

...NORTHEAST IOWA...


CITY           SKY/WX    TMP DP  RH WIND       PRES   REMARKS
WATERLOO       CLOUDY    78  70  76 SE6       29.91S
DUBUQUE        CLOUDY    73  72  96 S5        29.95R
DECORAH        CLOUDY    75  72  88 CALM      29.92R
MASON CITY     CLOUDY    80  70  71 SE12      29.94S
CHARLES CITY   CLOUDY    77  72  83 CALM      29.93F
OELWEIN        CLOUDY    77  72  83 SE6       29.94R
$$

...ELSEWHERE IN IOWA...


CITY           SKY/WX    TMP DP  RH WIND       PRES   REMARKS
DES MOINES     PTSUNNY   86  72  62 SE12      29.89F HX  92
IOWA CITY      CLOUDY    75  72  90 SE8       29.95F
FORT DODGE     CLOUDY    79  72  78 SE9       29.92S
MARSHALLTOWN   LGT RAIN  75  72  90 E6        29.92F
CEDAR RAPIDS   CLOUDY    77  73  87 SE8       29.93F
$$

...NORTHERN ILLINOIS...


CITY           SKY/WX    TMP DP  RH WIND       PRES   REMARKS
CHICAGO-OHARE  TSTM      77  68  73 NW29G36   30.05R
DUPAGE         TSTM      74  70  87 NE8       30.01F
CHICAGO-MIDWAY TSTM      80  75  84 NE8       30.01R
MOLINE         CLOUDY    73  70  90 E6        29.94F
ROCKFORD       TSTM      72  70  93 E10       29.95F
STERLING       CLOUDY    70  68  94 S6        29.94F
PEORIA         CLOUDY    76  71  85 NE10      29.96F
$$

NOTE: "FAIR" INDICATES FEW OR NO CLOUDS BELOW 12,000 FEET WITH NO
SIGNIFICANT WEATHER AND/OR OBSTRUCTIONS TO VISIBILITY. WIND
SPEEDS ARE IN MILES-PER-HOUR.



USA.gov is the U.S. government's official web portal to all federal, state and local government web resources and services.